Regional Weather Roundup
Issued by NWS Grand Forks, ND

Home | Current Version | Previous Version | Text Only | Print | Product List | Glossary Off
Versions: 1 2 3 4 5 6 7 8 9 10 11 12 13 14 15 16 17 18 19 20 21 22 23 24 25 26 27 28 29 30 31 32 33 34 35 36 37 38 39 40 41 42 43 44 45 46 47 48 49 50

626
ASUS43 KFGF 230210
RWRFGF
PRAIRIE TO PINES  WEATHER ROUNDUP
NATIONAL WEATHER SERVICE EASTERN NORTH DAKOTA/GRAND FORKS ND
900 PM CDT TUE MAY 22 2018

 **SATELLITE DATA USED TO AUGMENT SKY COVER AT AUTOMATED STATIONS**
 *****  WEATHER ACROSS EASTERN NORTH DAKOTA  *****

CITY           SKY/WX    TMP DP  RH WIND       PRES   REMARKS
GRAND FORKS    FAIR      74  55  51 SE8       29.93S
GRAND FRKS AFB FAIR      74  54  50 SE7       29.94S
GRAND FRKS NWS   N/A     76  55  47 SE6       29.91S
DEVILS LAKE    FAIR      72  54  53 E8        29.94R
FARGO          FAIR      76  56  49 E10       29.94R
WAHPETON ARPT  FAIR      75  50  41 E9        29.95R
$$

 ***** WEATHER ACROSS CENTRAL AND WESTERN NORTH DAKOTA  *****

CITY           SKY/WX    TMP DP  RH WIND       PRES   REMARKS
BISMARCK       MOCLDY    73  54  51 E3        29.90R
MINOT          CLOUDY    80  45  28 CALM      29.90R
JAMESTOWN      LGT RAIN  72  58  61 SE9       29.91S
MINOT AFB      CLOUDY    70  54  56 N7        29.89R
GARRISON         N/A     76  46  34 E7        29.88S
WILLISTON      CLOUDY    74  51  44 NE8       29.91R
DICKINSON      FAIR      70  54  56 SE10      29.89R
HETTINGER      CLOUDY    59  54  83 E23G32    29.94R THUNDER
$$

 *****  OTHER AIRPORT OBSERVATIONS IN OUR AREA  *****

CITY           SKY/WX    TMP DP  RH WIND       PRES   REMARKS
WALHALLA       FAIR      73  55  53 SE6       29.93S
GRAFTON AIRPOR FAIR      72  55  56 SE7       29.95S
VALLEY CITY AR FAIR      73  55  53 SE8       29.95R
CANDO          FAIR      73  50  43 SE7       29.95R
CAVALIER APRT    N/A     77  54  44 SE6       29.93R
GWINNER          N/A     73  52  46 E8        29.93R
SHEYENNE NWR     N/A     68  56  66 SE5       29.95S
ROLLA          FAIR      72  50  46 SE7       29.95R
 ***** THE ABOVE OBSERVATIONS ARE NON NWS ARE NOT QUALITY
       CONTROLLED AND MAY MIS-REPORT RAIN FOR SNOW...
$$

  *****  WEATHER ACROSS NORTHERN MINNESOTA  *****

CITY           SKY/WX    TMP DP  RH WIND       PRES   REMARKS
FLAG ISLAND    FAIR      64  55  72 CALM      29.98S
WARROAD        FAIR      66  54  63 E3        29.99S
ROSEAU         FAIR      72  61  68 E3        29.99R
HALLOCK        FAIR      75  54  46 SE8       29.95R
THF RVR FALLS  FAIR      72  54  53 SE5       29.99S
BAUDETTE       MOCLDY    67  52  58 N3        29.99S
WASKISH          N/A     64  55  72 CALM      30.00S
CROOKSTON      FAIR      73  54  49 SE6       29.97R
STEPHEN NDAWN    N/A     72  52  49 SE6         N/A
GREENBUSH NDAW   N/A     70  57  64 SE2         N/A
$$
  *****  WEATHER ACROSS CENTRAL AND WEST MINNESOTA  *****

CITY           SKY/WX    TMP DP  RH WIND       PRES   REMARKS
FOSSTON        FAIR      70  46  43 CALM      30.00R
BEMIDJI        FAIR      66  54  65 SE6       30.01S
PARK RAPIDS    FAIR      70  55  59 SE5       30.01S
ELBOW LAKE     FAIR      71  56  59 SE10      29.98S
WADENA         FAIR      66  54  63 SE5       30.01S
DETROIT LAKES  FAIR      72  54  53 SE5       30.01R
MOORHEAD       FAIR      73  55  53 E9        29.96R
FERGUS FALLS   FAIR      73  55  53 SE8       29.93R
MORRIS MN      FAIR      73  55  53 E13       29.96S
STAPLES        FAIR      66  54  63 CALM      30.02S
$$
  *****  WEATHER ELSEWHERE ACROSS MINNESOTA  *****

CITY           SKY/WX    TMP DP  RH WIND       PRES   REMARKS
DULUTH         FAIR      70  53  54 SW7       30.03R
INTRNTL FALLS  FAIR      62  50  64 CALM      29.99S
ELY            FAIR      66  41  39 CALM      30.01S
CLOQUET        FAIR      66  52  59 SW6       30.04R
WHEATON        FAIR      73  52  46 SE6       29.96S
BRAINERD       FAIR      67  55  65 SE3       30.03S
HIBBING        FAIR      63  53  70 CALM      30.02R
ALEXANDRIA     FAIR      71  56  58 E9        30.02R
SAINT CLOUD    FAIR      64  57  78 CALM      30.02R
MINNEAPOLIS    FAIR      71  58  63 SE12      30.02S
$$

  *****  WEATHER ACROSS SOUTH DAKOTA  *****

CITY           SKY/WX    TMP DP  RH WIND       PRES   REMARKS
SIOUX FALLS    CLOUDY    74  65  73 SE10      29.93S
BROOKINGS      FAIR      73  62  68 SE8       29.95S
WATERTOWN      MOCLDY    76  56  49 E8        29.94R
HURON          FAIR      75  63  66 SE7       29.90R
SISSETON         N/A     73  55  53 SE7       29.93S
ABERDEEN       FAIR      76  50  40 E9        29.91R
MITCHELL       FAIR      75  65  70 SE9       29.90S
PIERRE         FAIR      74  62  66 SE7       29.87R
MOBRIDGE       FAIR      73  61  65 SE8       29.87R
RAPID CITY     TSTM      60  57  89 S18       29.99R
$$

  *****  SOME WEATHER IN NEARBY STATES *****

CITY           SKY/WX    TMP DP  RH WIND       PRES   REMARKS
GLASGOW MT     FAIR      76  48  37 CALM      29.90S
GREAT FALLS MT FAIR      67  54  63 NW5       29.97F
CHEYENNE WY    LGT RAIN  56  52  86 W6        30.00R FOG
SCOTTSBLUFF NE FAIR      71  59  65 SE8       29.86R
OMAHA NE       FAIR      79  63  57 SE14      29.93R
DES MOINES IA  MOCLDY    76  64  66 SE6       30.00R
DAVENPORT IA   FAIR      66  59  78 E8        30.07R
CHICAGO IL     FAIR      58  51  78 E5        30.06R
EAU CLAIRE WI  FAIR      63  56  78 S6        30.05S
LA CROSSE WI   FAIR      64  58  80 CALM      30.06S
$$

  *****  SOME NATIONAL WEATHER *****

CITY           SKY/WX    TMP DP  RH WIND       PRES   REMARKS
LA GUARDIA NY  CLOUDY    58  54  86 NE5       30.00S
RALEIGH NC     FAIR      75  68  78 S9        30.06R
ATLANTA GA     CLOUDY    70  66  87 SE6       30.08R
NEW ORLEANS LA FAIR      83  73  72 S6        29.99R
OKLAHOMA CITY  MOCLDY    73  66  78 SE7       29.97R
ALBUQUERQUE NM FAIR      78  15   9 S21G29    29.92R
SALT LAKE CITY TSTM      66  40  38 S23G35    29.93R
LOS ANGELES CA FAIR      63  51  65 W14       29.90S
BOISE ID       FAIR      77  49  37 NW7       29.79R
SEATTLE WA     FAIR      76  49  38 NW9       29.83F
$$

*** WEATHER ACROSS MANITOBA...SASKATCHEWAN AND ONTARIO ***
                ***ONTARIO***

CITY           SKY/WX    TMP DP  RH WIND       PRES   REMARKS
GERALDTON      PTCLDY    61  43  51 NE8       30.02R
THUNDER BAY    MOCLDY    64  36  34 E5        29.95R
SIOUX LOOKOUT  MOCLDY    61  41  48 S2        29.98R
TORONTO        DRIZZLE   59  55  88 SW2       29.94R
BIG TROUT LK   CLEAR     41  27  56 E6        30.14R
PICKLE LAKE    MOCLDY    63  41  45 E9        30.01R
DRYDEN         CLEAR     70  43  37 SW7       29.99R
KENORA         PTCLDY    70  43  37 S6        30.00R
$$
                *** MANITOBA***

CITY           SKY/WX    TMP DP  RH WIND       PRES   REMARKS
BRANDON        MOCLDY    73  46  38 NE10      29.91R
DAUPHIN        CLOUDY    70  52  52 NE7       29.91S
ISLAND LAKE    PTCLDY    57  37  47 NE6       30.06R
PILOT MOUND      N/A     70  46  43 SE8         N/A
THE PAS        CLEAR     68  45  42 E5        29.98S
THOMPSON       PTCLDY    55  32  41 E3        30.05F
WINNIPEG       MOCLDY    73  52  46 S9        29.94R
LYNN LAKE      CLEAR     63  39  42 S6        29.97F
CHURCHILL      MOCLDY    32  25  74 S15       30.13S WCI  22
GILLAM         PTCLDY    43  27  52 E3        30.12F
$$
                ***SASKATCHEWAN***

CITY           SKY/WX    TMP DP  RH WIND       PRES   REMARKS
ESTEVAN        LGT RAIN  61  54  77 NE14      29.94S
KINDERSLEY     PTCLDY    77  41  27 N9        29.91S
LLOYDMINSTER   MOSUNNY   77  39  25 CALM      29.91S
PRINCE ALBERT  MOCLDY    79  48  34 SE6       29.93R
REGINA         PTCLDY    68  52  56 SE12      29.93S
YORKTON        MOCLDY    68  48  49 S9G18     29.93R
N. BATTLEFORD  CLEAR     75  46  35 SE6       29.92R
LA RONGE       PTCLDY    73  43  33 NE7       29.93S
SASKATOON      MOCLDY    73  45  35 S8        29.92R
SWIFT CURRENT  CLEAR     68  43  40 NE7       29.93R
$$
NOTE: THESE ARE AUTOMATED STATIONS WITH LIMITED QUALITY CONTROL
      "FAIR" INDICATES FEW OR NO CLOUDS BELOW 12,000 FEET WITH NO
      SIGNIFICANT WEATHER AND/OR OBSTRUCTIONS TO VISIBILITY.
      SKY/WX - SKY CONDITION AND SIGNIFICANT WEATHER.
      TMP - AIR TEMPERATURE.    DP   - DEWPOINT TEMPERATURE.
      RH  - RELATIVE HUMIDITY.  PRES - PRESSURE.
      HX  - HEAT INDEX.         WCI  - WIND CHILL INDEX.
$




USA.gov is the U.S. government's official web portal to all federal, state and local government web resources and services.